Pensacola, FL

6:34 AM CST on December 11, 2016 (GMT -0600)
Pensacola Naval Air Station

Weather History for KNPA - June, 2012

Change the Weather History Date:

Tuesday, June 26, 2012

  Actual Average Record
Temperature  
Mean Temperature 84 °F -  
Max Temperature 96 °F 85 °F 96 °F (2012)
Min Temperature 73 °F 71 °F 66 °F (2001)
Cooling Degree Days 19    
Growing Degree Days 34 (Base 50)    
Moisture  
Dew Point 70 °F    
Average Humidity 66    
Maximum Humidity 91    
Minimum Humidity 43    
Precipitation  
Precipitation 0.00 in - - ()
Sea Level Pressure  
Sea Level Pressure 29.67 in    
Wind  
Wind Speed 7 mph (North)    
Max Wind Speed 20 mph    
Max Gust Speed 25 mph    
Visibility 10 miles    
Events      
Averages and records for this station are not official NWS values.
T = Trace of Precipitation, MM = Missing Value Source: NWS Daily Summary

Daily Weather History Graph

Daily Weather History Graph

Search for Another Location

Airport or City:

Trip Planner

Search our weather history database for the weather conditions in past years. The results will help you decide how hot, cold, wet, or windy it might be!

Date:

Astronomy

Jun. 26, 2012 Rise Set
Actual Time 5:49 AM CDT 7:55 PM CDT
Civil Twilight 5:21 AM CDT 8:22 PM CDT
Nautical Twilight 4:48 AM CDT 8:56 PM CDT
Astronomical Twilight 4:12 AM CDT 9:32 PM CDT
Moon 12:33 PM CDT (6/26) No Moon Set
Length of Visible Light 15h 00m
Length of Day
14h 05m
Waxing Crescent, 45% of the Moon is Illuminated
Jun 26
Waxing Crescent
Jun 26
First Quarter
Jul 3
Full
Jul 10
Last Quarter
Jul 18
New

Hourly Weather History & Observations

Time (CDT) Temp. Heat Index Dew Point Humidity Pressure Visibility Wind Dir Wind Speed Gust Speed Precip Events Conditions
12:56 AM 80.1 °F 83.2 °F 70.0 °F 71% 29.63 in 10.0 mi North 5.8 mph - N/A   Clear
1:56 AM 77.0 °F - 70.0 °F 79% 29.62 in 10.0 mi NNW 4.6 mph - N/A   Clear
2:56 AM 75.0 °F - 70.0 °F 84% 29.61 in 10.0 mi NNW 3.5 mph - N/A   Clear
3:56 AM 75.0 °F - 70.0 °F 84% 29.62 in 10.0 mi NW 4.6 mph - N/A   Clear
4:56 AM 73.9 °F - 70.0 °F 87% 29.64 in 10.0 mi NNW 3.5 mph - N/A   Clear
5:56 AM 73.0 °F - 70.0 °F 90% 29.65 in 10.0 mi NNW 5.8 mph - N/A   Partly Cloudy
6:56 AM 75.9 °F - 71.1 °F 85% 29.65 in 10.0 mi North 8.1 mph - N/A   Clear
7:56 AM 80.1 °F 83.8 °F 72.0 °F 76% 29.66 in 10.0 mi North 9.2 mph - N/A   Clear
8:56 AM 84.0 °F 89.0 °F 71.1 °F 65% 29.66 in 10.0 mi North 12.7 mph 19.6 mph N/A   Clear
9:56 AM 88.0 °F 92.1 °F 69.1 °F 53% 29.66 in 10.0 mi North 13.8 mph - N/A   Clear
10:56 AM 91.0 °F 95.6 °F 69.1 °F 48% 29.66 in 10.0 mi NNE 17.3 mph 25.3 mph N/A   Partly Cloudy
11:56 AM 91.9 °F 97.4 °F 70.0 °F 48% 29.67 in 10.0 mi NNE 19.6 mph 24.2 mph N/A   Partly Cloudy
12:56 PM 93.0 °F 99.0 °F 70.0 °F 47% 29.67 in 10.0 mi NE 11.5 mph 25.3 mph N/A   Scattered Clouds
1:56 PM 95.0 °F 100.7 °F 69.1 °F 43% 29.66 in 10.0 mi NNE 13.8 mph 21.9 mph N/A   Scattered Clouds
2:56 PM 95.0 °F 101.3 °F 70.0 °F 44% 29.66 in 10.0 mi NNE 11.5 mph 20.7 mph N/A   Scattered Clouds
3:56 PM 91.9 °F 96.9 °F 69.1 °F 47% 29.66 in 10.0 mi North 9.2 mph - N/A   Scattered Clouds
4:56 PM 93.0 °F 99.0 °F 70.0 °F 47% 29.66 in 10.0 mi North 11.5 mph 20.7 mph N/A   Scattered Clouds
5:56 PM 93.9 °F 99.1 °F 69.1 °F 44% 29.67 in 10.0 mi NNE 12.7 mph - N/A   Scattered Clouds
6:56 PM 91.0 °F 96.6 °F 70.0 °F 50% 29.69 in 10.0 mi North 9.2 mph - N/A   Scattered Clouds
7:56 PM 88.0 °F 92.9 °F 70.0 °F 55% 29.71 in 10.0 mi North 4.6 mph - N/A   Partly Cloudy
8:56 PM 82.9 °F 87.5 °F 71.1 °F 67% 29.73 in 10.0 mi Calm Calm - N/A   Clear
9:56 PM 78.1 °F - 72.0 °F 81% 29.75 in 10.0 mi Calm Calm - N/A   Clear
10:56 PM 75.9 °F - 72.0 °F 87% 29.76 in 10.0 mi Calm Calm - N/A   Clear
11:56 PM 73.9 °F - 71.1 °F 91% 29.77 in 10.0 mi Calm Calm - N/A   Clear